TIME,DELAY(SENSOR),PRES,T(CTD),SAL,OXYGEN,RAWTEMP,T(OPTODE),TCPHASE,FLUOR,BETA(BETA700),BETA(BETA412),BETA(BETA440),CDOM,C(CSC),ED(ED412.20),ED(ED444.00),ED(ED489.60),ED(ED554.30),LU(LU412.10),LU(LU443.90),LU(LU489.70),LU(LU554.70),COMP,TILTX,TILTX(TILTY),CHECK
1373924444,30955,497.9500122070312500,6.3969998359680180,34.1113014221191400,62.2900505065918000,498.8926086425781000,6.3652949333190920,51.6984481811523440,54,105,95,79,79,15588,0,0,0,0,2147120475,2147759332,2147571730,2147570596,939,3,12,64091
1373924597,30953,487.0299987792969000,6.4991002082824710,34.1003990173339840,66.7861480712890600,494.8540039062500000,6.4885611534118650,51.0729789733886700,54,102,97,79,79,15592,0,0,0,0,2147120493,2147767067,2147562971,2147570477,3582,2,13,62405
1373924737,30959,475.2200012207031000,6.7217001914978030,34.0961990356445300,73.8407363891601600,487.8055114746094000,6.7034339904785160,50.1094512939453100,54,104,95,78,78,15583,0,0,0,0,2147119067,2147761371,2147566336,2147570130,2944,3,12,26731
1373924853,30952,463.3699951171875000,6.9288001060485840,34.0839996337890600,81.3143463134765600,481.2319030761719000,6.9035391807556150,49.1388511657714840,53,103,96,79,79,15583,0,0,0,0,2147121828,2147758528,2147566409,2147572370,2993,2,13,21871
1373924965,30940,451.7399902343750000,7.0833001136779785,34.0788002014160160,89.6063308715820300,476.1509094238281000,7.0580229759216310,48.1279182434082000,53,102,94,79,78,15578,0,0,0,0,2147123309,2147759872,2147560850,2147569316,3195,3,12,11749
1373925074,30936,440.8800048828125000,7.3478999137878420,34.0682983398437500,101.5400009155273400,467.6726989746094000,7.3154449462890625,46.7295112609863300,52,104,95,78,77,15576,0,0,0,0,2147120621,2147756187,2147558619,2147570624,3505,2,13,15952
1373925183,30933,430.6700134277344000,7.5823998451232910,34.0648994445800800,113.9744033813476600,459.7658081054687500,7.5551371574401855,45.3608512878418000,52,103,94,78,76,15584,0,0,0,0,2147119552,2147754249,2147561106,2147572160,3504,2,12,11061
1373925306,30941,419.7799987792969000,7.7624998092651370,34.0638008117675800,123.4169998168945300,453.7933959960937500,7.7359437942504880,44.3719215393066400,51,105,95,79,76,15585,0,0,0,0,2147120237,2147756873,2147559744,2147575012,3411,2,12,54868
1373925437,30941,408.6400146484375000,7.9983000755310060,34.0675010681152340,131.2086029052734400,446.0672912597656000,7.9695491790771480,43.5444984436035160,51,102,96,80,76,15577,0,0,0,0,2147124425,2147756297,2147562761,2147573924,2979,2,12,15925
1373925568,30945,397.5199890136719000,8.1801996231079100,34.0615005493164060,138.9553070068359400,440.2446899414062500,8.1453876495361330,42.7779502868652340,52,105,94,79,76,15582,0,0,0,0,2147121142,2147751296,2147560173,2147573833,1906,2,12,15657
1373925701,30920,386.3999938964844000,8.3086996078491210,34.0573997497558600,154.1170043945312500,435.1835021972656000,8.2980852127075200,41.4562187194824200,50,102,93,80,75,15579,0,0,0,0,2147117705,2147756169,2147557723,2147571958,1547,3,12,38447
1373925832,30940,375.7500000000000000,8.6120004653930660,34.0617980957031250,163.1096038818359400,425.8120117187500000,8.5804815292358400,40.6134414672851560,50,105,95,79,73,15578,0,0,0,0,2147119332,2147755190,2147556864,2147574445,1547,2,12,9778
1373925977,30931,364.9100036621094000,8.9405002593994140,34.0690994262695300,171.8455047607422000,415.3565979003906000,8.8950319290161130,39.8047981262207000,51,105,95,78,73,15587,0,0,0,0,2147118427,2147751606,2147560246,2147575158,416,2,12,43489
1373926130,30955,353.9800109863281000,9.2843999862670900,34.0791015625000000,181.7328033447265600,403.5896911621094000,9.2484340667724610,38.9261817932128900,50,107,95,79,72,15588,0,0,0,0,2147120310,2147753782,2147559003,2147576109,2869,2,13,29036
1373926283,30959,342.4899902343750000,9.7086000442504880,34.0835990905761700,190.5637969970703000,391.3844909667969000,9.6143636703491210,38.1460990905761700,50,104,96,80,72,15579,0,0,0,0,2147120768,2147751414,2147564306,2147574774,469,3,12,18195
1373926417,30963,330.9200134277344000,10.1625995635986330,34.0990982055664060,199.1658935546875000,375.1216125488281000,10.1010198593139650,37.3462104797363300,50,104,95,78,71,15589,0,0,0,0,2147121289,2147748077,2147568502,2147573851,965,2,12,48393
1373926537,30952,320.0100097656250000,10.5338001251220700,34.1128997802734400,204.3121032714843800,362.0343933105469000,10.4919395446777340,36.8283500671386700,50,104,94,79,70,15578,0,0,0,0,2147121133,2147747958,2147568502,2147576356,75,2,12,7036
1373926659,30951,309.0499877929687500,10.9429998397827150,34.1240997314453100,215.7666015625000000,348.1541137695312500,10.9059295654296880,35.9500885009765600,50,103,94,79,68,15578,0,0,0,0,2147118994,2147751981,2147568045,2147575387,3109,2,12,26112
1373926779,30955,298.5899963378906000,11.3422002792358400,34.1302986145019500,219.1208038330078000,334.9187011718750000,11.3001499176025390,35.5611801147460940,49,103,93,79,69,15581,0,0,0,0,2147118756,2147754340,2147578962,2147576804,1957,2,12,38232
1373926912,30951,287.1900024414062500,11.6768999099731450,34.1431007385253900,221.9539031982422000,323.6914062500000000,11.6341896057128900,35.2364006042480500,50,103,93,79,68,15574,0,0,0,0,2147121846,2147763291,2147589083,2147579501,1418,2,12,31929
1373927043,30953,276.5899963378906000,12.1695003509521480,34.1585998535156250,219.0794982910156200,306.8167114257812500,12.1357002258300780,35.1391601562500000,50,106,94,80,67,15576,0,0,0,0,2147117878,2147765211,2147598637,2147580306,962,2,12,28619
1373927185,30966,266.1900024414062500,12.5511999130249020,34.1739006042480500,219.1441955566406200,295.1225891113281000,12.4829196929931640,34.9617614746093750,50,104,94,80,68,15573,0,0,0,0,2147117897,2147766427,2147604096,2147583661,3050,2,13,42985
1373927350,30968,254.4199981689453000,13.1999998092651370,34.2210998535156250,218.1846008300781200,271.7373046875000000,13.1766195297241210,34.6696510314941400,50,104,94,78,68,15579,0,0,0,0,2147117330,2147771565,2147607716,2147584521,2734,2,12,5820
1373927492,30965,243.2799987792968800,13.8675003051757810,34.2640991210937500,212.2422943115234400,249.5874023437500000,13.8331298828125000,34.6764106750488300,50,105,94,79,68,15571,0,0,0,0,2147123017,2147801874,2147665069,2147584905,173,2,12,5743
1373927632,30963,231.4499969482422000,14.5881996154785160,34.3224983215332000,200.9839019775390600,225.8961029052734400,14.5350399017333980,34.9835090637207000,50,103,94,79,67,15567,0,0,0,0,2147120685,2147824457,2147712301,2147592557,3541,2,12,7807
1373927744,30954,219.8600006103515600,15.4055004119873050,34.4266014099121100,199.8152008056640600,195.8648986816406200,15.4248895645141600,34.6231117248535160,52,102,94,79,67,15559,0,0,0,0,2147129289,2147846098,2147735817,2147594660,3227,2,12,8050
1373927842,30957,209.2400054931640600,16.4853992462158200,34.5802993774414060,200.7796936035156200,161.9918060302734400,16.4294700622558600,34.0896606445312500,54,105,95,78,66,15556,0,0,0,0,2147137965,2147884141,2147776210,2147600896,2893,2,12,38747
1373927982,30956,195.2599945068359400,17.4330997467041000,34.7476005554199200,200.8636932373047000,131.4225006103515600,17.3376598358154300,33.6621589660644500,59,105,94,78,65,15552,0,0,0,0,2147156233,2147965147,2147892982,2147608393,3226,2,12,39009
1374098447,30957,394.6900024414062500,8.4007997512817380,34.0587997436523440,155.2073059082031200,432.4892883300781000,8.3793182373046880,41.3268508911132800,52,103,96,79,73,15609,0,0,0,0,2147118034,2147754505,2147563062,2147575360,3111,2,13,15032
1374098614,30957,381.3399963378906000,8.7012996673583980,34.0639991760253900,169.1822052001953000,422.7178039550781000,8.6736240386962890,40.1170692443847660,51,103,94,79,74,15609,0,0,0,0,2147115803,2147752018,2147559533,2147573110,2352,2,12,1759
1374098734,30949,370.2699890136719000,9.0016002655029300,34.0726013183593750,175.0059967041015600,412.9421997070312500,8.9675979614257810,39.5420303344726560,51,103,96,78,72,15608,0,0,0,0,2147116470,2147749952,2147563072,2147573065,1902,2,12,24847
1374098856,30948,358.8999938964844000,9.2404003143310550,34.0779991149902340,182.3787994384765600,404.8515930175781000,9.2105646133422850,38.9030609130859400,50,103,95,78,73,15606,0,0,0,0,2147113773,2147752585,2147561938,2147574034,821,2,12,7589
1374098965,30927,348.4599914550781000,9.6028003692626950,34.0863990783691400,187.7660064697265600,393.0418090820312500,9.5647106170654300,38.3550186157226560,50,105,95,80,72,15607,0,0,0,0,2147118253,2147747693,2147562477,2147575332,1011,3,12,26628
1374099085,30931,337.0700073242187500,9.9610004425048830,34.0979995727539060,195.2572937011718800,380.4595031738281000,9.9413967132568360,37.6730995178222660,50,103,94,80,70,15607,0,0,0,0,2147117924,2147750802,2147564571,2147573933,3147,2,12,19401
1374099196,30953,326.6000061035156000,10.5151996612548830,34.1153984069824200,201.8168945312500000,363.4808959960937500,10.4487600326538090,37.0008201599121100,50,103,94,79,71,15609,0,0,0,0,2147117083,2147752566,2147566025,2147574034,195,3,13,46219
1374099316,30958,315.4700012207031000,10.8683004379272460,34.1245002746582000,216.0054016113281200,350.5989074707031000,10.8330497741699220,35.9745712280273440,50,102,95,78,68,15607,0,0,0,0,2147121325,2147749833,2147562724,2147576201,3152,2,12,16474
1374099447,30952,304.2200012207031000,11.4407997131347660,34.1405982971191400,220.1665039062500000,331.3891906738281000,11.4051904678344730,35.4501991271972660,50,104,94,80,68,15606,0,0,0,0,2147116406,2147743652,2147569069,2147576502,2382,2,12,42152
1374099580,30965,294.1700134277344000,11.7005996704101560,34.1493988037109400,221.5655975341797000,322.4194946289062500,11.6720104217529300,35.2381095886230500,50,104,95,79,68,15601,0,0,0,0,2147116800,2147754057,2147568923,2147579437,2159,3,12,27542
1374099755,30975,283.0700073242187500,12.1949996948242190,34.1594009399414060,220.0187988281250000,306.1835937500000000,12.1545095443725590,35.0787582397460940,49,105,94,79,67,15600,0,0,0,0,2147114953,2147754386,2147572571,2147576420,3202,2,12,19484
1374099920,30966,271.4500122070312500,12.8128995895385740,34.1939010620117200,219.1719970703125000,284.5400085449219000,12.7969398498535160,34.8039207458496100,50,104,95,79,67,15598,0,0,0,0,2147115748,2147753216,2147574336,2147582006,563,2,13,6751
1374100051,30973,260.1700134277344000,13.6672000885009770,34.2285003662109400,208.5733032226562500,258.3522949218750000,13.5733900070190430,35.0116882324218750,49,103,94,80,68,15594,0,0,0,0,2147113380,2147772800,2147622217,2147584073,205,2,12,17791
1374100202,30974,246.3500061035156200,14.8351001739501950,34.3451004028320300,202.0494995117187500,218.7393035888672000,14.7470798492431640,34.8174896240234400,50,104,95,80,67,15590,0,0,0,0,2147114852,2147774784,2147612205,2147585837,3166,2,13,1684
